Time,TemperatureF,DewpointF,PressureIn,WindDirection,WindDirectionDegrees,WindSpeedMPH,WindSpeedGustMPH,Humidity,HourlyPrecipIn,Conditions,Clouds,dailyrainin,SolarRadiationWatts/m^2,SoftwareType,DateUTC
2013-03-22 00:03:00,64.0,62.0,-100.00,South,183,1.0,3.0,94,0.00,,,0.00,0.000000,,2013-03-22 10:03:00,
2013-03-22 00:12:00,64.0,62.0,-100.00,South,183,1.0,3.0,94,0.00,,,0.00,0.000000,,2013-03-22 10:12:00,
2013-03-22 00:22:00,64.0,62.0,-100.00,South,183,1.0,3.0,94,0.00,,,0.00,0.000000,,2013-03-22 10:22:00,
2013-03-22 00:32:00,64.0,62.0,-100.00,South,183,1.0,3.0,94,0.00,,,0.00,0.000000,,2013-03-22 10:32:00,
2013-03-22 01:02:00,62.0,61.0,-100.00,SE,128,1.0,4.0,96,0.00,,,0.00,0.000000,,2013-03-22 11:02:00,
2013-03-22 01:12:00,62.0,61.0,-100.00,SE,128,1.0,4.0,96,0.00,,,0.00,0.000000,,2013-03-22 11:12:00,
2013-03-22 01:22:00,62.0,61.0,-100.00,SE,128,1.0,4.0,96,0.00,,,0.00,0.000000,,2013-03-22 11:22:00,
2013-03-22 01:32:00,62.0,61.0,-100.00,SE,128,1.0,4.0,96,0.00,,,0.00,0.000000,,2013-03-22 11:32:00,
2013-03-22 02:02:00,63.0,63.0,-100.00,SSW,209,2.0,5.0,99,0.00,,,0.00,0.000000,,2013-03-22 12:02:00,
2013-03-22 02:12:00,63.0,63.0,-100.00,SSW,209,2.0,5.0,99,0.00,,,0.00,0.000000,,2013-03-22 12:12:00,
2013-03-22 02:22:00,63.0,63.0,-100.00,SSW,209,2.0,5.0,99,0.00,,,0.00,0.000000,,2013-03-22 12:22:00,
2013-03-22 02:32:00,63.0,63.0,-100.00,SSW,209,2.0,5.0,99,0.00,,,0.00,0.000000,,2013-03-22 12:32:00,
2013-03-22 03:02:00,64.0,64.0,-100.00,SSW,213,2.0,10.0,100,0.05,,,-99.99,0.000000,,2013-03-22 13:02:00,
2013-03-22 03:12:00,64.0,64.0,-100.00,SSW,213,2.0,10.0,100,0.05,,,-99.99,0.000000,,2013-03-22 13:12:00,
2013-03-22 03:22:00,64.0,64.0,-100.00,SSW,213,2.0,10.0,100,0.05,,,-99.99,0.000000,,2013-03-22 13:22:00,
2013-03-22 03:32:00,64.0,64.0,-100.00,SSW,213,2.0,10.0,100,0.05,,,-99.99,0.000000,,2013-03-22 13:32:00,
2013-03-22 04:02:00,62.0,62.0,-100.00,SE,144,3.0,9.0,100,0.00,,,0.05,0.000000,,2013-03-22 14:02:00,
2013-03-22 04:12:00,62.0,62.0,-100.00,SE,144,3.0,9.0,100,0.00,,,0.05,0.000000,,2013-03-22 14:12:00,
2013-03-22 04:21:00,62.0,62.0,-100.00,SE,144,3.0,9.0,100,0.00,,,0.05,0.000000,,2013-03-22 14:21:00,
2013-03-22 04:31:00,62.0,62.0,-100.00,SE,144,3.0,9.0,100,0.00,,,0.05,0.000000,,2013-03-22 14:31:00,
2013-03-22 05:02:00,64.0,64.0,-100.00,NNW,341,1.0,10.0,100,0.02,,,0.07,0.000000,,2013-03-22 15:02:00,
2013-03-22 05:12:00,64.0,64.0,-100.00,NNW,341,1.0,10.0,100,0.02,,,0.07,0.000000,,2013-03-22 15:12:00,
2013-03-22 05:22:00,64.0,64.0,-100.00,NNW,341,1.0,10.0,100,0.02,,,0.07,0.000000,,2013-03-22 15:22:00,
2013-03-22 05:32:00,64.0,64.0,-100.00,NNW,341,1.0,10.0,100,0.02,,,0.07,0.000000,,2013-03-22 15:32:00,
2013-03-22 06:02:00,64.0,64.0,-100.00,SSW,200,2.0,10.0,100,0.00,,,0.07,0.000000,,2013-03-22 16:02:00,
2013-03-22 06:13:00,64.0,64.0,-100.00,SSW,200,2.0,10.0,100,0.00,,,0.07,0.000000,,2013-03-22 16:13:00,
2013-03-22 06:22:00,64.0,64.0,-100.00,SSW,200,2.0,10.0,100,0.00,,,0.07,0.000000,,2013-03-22 16:22:00,
2013-03-22 06:32:00,64.0,64.0,-100.00,SSW,200,2.0,10.0,100,0.00,,,0.07,0.000000,,2013-03-22 16:32:00,
2013-03-22 07:03:00,64.0,64.0,-100.00,WNW,284,2.0,11.0,100,0.00,,,0.07,0.000000,,2013-03-22 17:03:00,
2013-03-22 07:12:00,64.0,64.0,-100.00,WNW,284,2.0,11.0,100,0.00,,,0.07,0.000000,,2013-03-22 17:12:00,
2013-03-22 07:22:00,64.0,64.0,-100.00,WNW,284,2.0,11.0,100,0.00,,,0.07,0.000000,,2013-03-22 17:22:00,
2013-03-22 07:32:00,64.0,64.0,-100.00,WNW,284,2.0,11.0,100,0.00,,,0.07,0.000000,,2013-03-22 17:32:00,
2013-03-22 08:02:00,63.0,63.0,-100.00,SSW,209,2.0,9.0,100,0.00,,,0.07,11.000000,,2013-03-22 18:02:00,
2013-03-22 08:12:00,63.0,63.0,-100.00,SSW,209,2.0,9.0,100,0.00,,,0.07,11.000000,,2013-03-22 18:12:00,
2013-03-22 08:22:00,63.0,63.0,-100.00,SSW,209,2.0,9.0,100,0.00,,,0.07,11.000000,,2013-03-22 18:22:00,
2013-03-22 08:32:00,63.0,63.0,-100.00,SSW,209,2.0,9.0,100,0.00,,,0.07,11.000000,,2013-03-22 18:32:00,
2013-03-22 09:02:00,65.0,65.0,-100.00,NE,49,3.0,10.0,100,0.00,,,0.07,31.000000,,2013-03-22 19:02:00,
2013-03-22 09:12:00,65.0,65.0,-100.00,NE,49,3.0,10.0,100,0.00,,,0.07,31.000000,,2013-03-22 19:12:00,
2013-03-22 09:22:00,65.0,65.0,-100.00,NE,49,3.0,10.0,100,0.00,,,0.07,31.000000,,2013-03-22 19:22:00,
2013-03-22 09:32:00,65.0,65.0,-100.00,NE,49,3.0,10.0,100,0.00,,,0.07,31.000000,,2013-03-22 19:32:00,
2013-03-22 10:02:00,65.0,65.0,-100.00,ESE,109,4.0,16.0,100,0.00,,,0.07,79.000000,,2013-03-22 20:02:00,
2013-03-22 10:12:00,65.0,65.0,-100.00,ESE,109,4.0,16.0,100,0.00,,,0.07,79.000000,,2013-03-22 20:12:00,
2013-03-22 10:22:00,65.0,65.0,-100.00,ESE,109,4.0,16.0,100,0.00,,,0.07,79.000000,,2013-03-22 20:22:00,
2013-03-22 10:32:00,65.0,65.0,-100.00,ESE,109,4.0,16.0,100,0.00,,,0.07,79.000000,,2013-03-22 20:32:00,
2013-03-22 11:02:00,65.0,65.0,-100.00,SW,222,3.0,13.0,100,0.01,,,0.08,92.000000,,2013-03-22 21:02:00,
2013-03-22 11:12:00,65.0,65.0,-100.00,SW,222,3.0,13.0,100,0.01,,,0.08,92.000000,,2013-03-22 21:12:00,
2013-03-22 11:22:00,65.0,65.0,-100.00,SW,222,3.0,13.0,100,0.01,,,0.08,92.000000,,2013-03-22 21:22:00,
2013-03-22 11:32:00,65.0,65.0,-100.00,SW,222,3.0,13.0,100,0.01,,,0.08,92.000000,,2013-03-22 21:32:00,
2013-03-22 12:02:00,64.0,64.0,-100.00,SW,215,4.0,12.0,100,0.00,,,0.08,135.000000,,2013-03-22 22:02:00,
2013-03-22 12:12:00,64.0,64.0,-100.00,SW,215,4.0,12.0,100,0.00,,,0.08,135.000000,,2013-03-22 22:12:00,
2013-03-22 12:22:00,64.0,64.0,-100.00,SW,215,4.0,12.0,100,0.00,,,0.08,135.000000,,2013-03-22 22:22:00,
2013-03-22 12:32:00,64.0,64.0,-100.00,SW,215,4.0,12.0,100,0.00,,,0.08,135.000000,,2013-03-22 22:32:00,
2013-03-22 13:02:00,68.0,64.0,-100.00,NNE,33,3.0,14.0,87,0.01,,,0.09,673.000000,,2013-03-22 23:02:00,
2013-03-22 13:12:00,68.0,64.0,-100.00,NNE,33,3.0,14.0,87,0.01,,,0.09,673.000000,,2013-03-22 23:12:00,
2013-03-22 13:22:00,68.0,64.0,-100.00,NNE,33,3.0,14.0,87,0.01,,,0.09,673.000000,,2013-03-22 23:22:00,
2013-03-22 13:32:00,68.0,64.0,-100.00,NNE,33,3.0,14.0,87,0.01,,,0.09,673.000000,,2013-03-22 23:32:00,
2013-03-22 14:02:00,67.0,63.0,-100.00,SSW,213,3.0,12.0,87,0.00,,,0.09,522.000000,,2013-03-23 00:02:00,
2013-03-22 14:12:00,67.0,63.0,-100.00,SSW,213,3.0,12.0,87,0.00,,,0.09,522.000000,,2013-03-23 00:12:00,
2013-03-22 14:22:00,67.0,63.0,-100.00,SSW,213,3.0,12.0,87,0.00,,,0.09,522.000000,,2013-03-23 00:22:00,
2013-03-22 14:32:00,67.0,63.0,-100.00,SSW,213,3.0,12.0,87,0.00,,,0.09,522.000000,,2013-03-23 00:32:00,
2013-03-22 15:03:00,65.0,65.0,-100.00,East,91,5.0,14.0,100,0.01,,,0.10,136.000000,,2013-03-23 01:03:00,
2013-03-22 15:12:00,65.0,65.0,-100.00,East,91,5.0,14.0,100,0.01,,,0.10,136.000000,,2013-03-23 01:12:00,
2013-03-22 15:22:00,65.0,65.0,-100.00,East,91,5.0,14.0,100,0.01,,,0.10,136.000000,,2013-03-23 01:22:00,
2013-03-22 15:31:00,65.0,65.0,-100.00,East,91,5.0,14.0,100,0.01,,,0.10,136.000000,,2013-03-23 01:31:00,
2013-03-22 16:02:00,65.0,65.0,-100.00,NE,42,3.0,14.0,100,0.00,,,0.10,183.000000,,2013-03-23 02:02:00,
2013-03-22 16:12:00,65.0,65.0,-100.00,NE,42,3.0,14.0,100,0.00,,,0.10,183.000000,,2013-03-23 02:12:00,
2013-03-22 16:22:00,65.0,65.0,-100.00,NE,42,3.0,14.0,100,0.00,,,0.10,183.000000,,2013-03-23 02:22:00,
2013-03-22 16:31:00,65.0,65.0,-100.00,NE,42,3.0,14.0,100,0.00,,,0.10,183.000000,,2013-03-23 02:31:00,
2013-03-22 17:02:00,63.0,63.0,-100.00,SSE,160,2.0,13.0,99,0.00,,,0.10,90.000000,,2013-03-23 03:02:00,
2013-03-22 17:12:00,63.0,63.0,-100.00,SSE,160,2.0,13.0,99,0.00,,,0.10,90.000000,,2013-03-23 03:12:00,
2013-03-22 17:22:00,63.0,63.0,-100.00,SSE,160,2.0,13.0,99,0.00,,,0.10,90.000000,,2013-03-23 03:22:00,
2013-03-22 17:32:00,63.0,63.0,-100.00,SSE,160,2.0,13.0,99,0.00,,,0.10,90.000000,,2013-03-23 03:32:00,
2013-03-22 18:02:00,64.0,64.0,-100.00,NW,320,3.0,11.0,100,0.00,,,0.10,58.000000,,2013-03-23 04:02:00,
2013-03-22 18:12:00,64.0,64.0,-100.00,NW,320,3.0,11.0,100,0.00,,,0.10,58.000000,,2013-03-23 04:12:00,
2013-03-22 18:23:00,64.0,64.0,-100.00,NW,320,3.0,11.0,100,0.00,,,0.10,58.000000,,2013-03-23 04:23:00,
2013-03-22 18:32:00,64.0,64.0,-100.00,NW,320,3.0,11.0,100,0.00,,,0.10,58.000000,,2013-03-23 04:32:00,
2013-03-22 19:02:00,63.0,63.0,-100.00,SSE,159,3.0,12.0,100,0.00,,,0.10,14.000000,,2013-03-23 05:02:00,
2013-03-22 19:12:00,63.0,63.0,-100.00,SSE,159,3.0,12.0,100,0.00,,,0.10,14.000000,,2013-03-23 05:12:00,
2013-03-22 19:22:00,63.0,63.0,-100.00,SSE,159,3.0,12.0,100,0.00,,,0.10,14.000000,,2013-03-23 05:22:00,
2013-03-22 19:32:00,63.0,63.0,-100.00,SSE,159,3.0,12.0,100,0.00,,,0.10,14.000000,,2013-03-23 05:32:00,
2013-03-22 20:02:00,61.0,61.0,-100.00,SE,146,3.0,11.0,100,0.00,,,0.10,0.000000,,2013-03-23 06:02:00,
2013-03-22 20:12:00,61.0,61.0,-100.00,SE,146,3.0,11.0,100,0.00,,,0.10,0.000000,,2013-03-23 06:12:00,
2013-03-22 20:22:00,61.0,61.0,-100.00,SE,146,3.0,11.0,100,0.00,,,0.10,0.000000,,2013-03-23 06:22:00,
2013-03-22 20:31:00,61.0,61.0,-100.00,SE,146,3.0,11.0,100,0.00,,,0.10,0.000000,,2013-03-23 06:31:00,
2013-03-22 21:02:00,61.0,61.0,-100.00,SE,139,3.0,10.0,100,0.00,,,0.10,0.000000,,2013-03-23 07:02:00,
2013-03-22 21:12:00,61.0,61.0,-100.00,SE,139,3.0,10.0,100,0.00,,,0.10,0.000000,,2013-03-23 07:12:00,
2013-03-22 21:22:00,61.0,61.0,-100.00,SE,139,3.0,10.0,100,0.00,,,0.10,0.000000,,2013-03-23 07:22:00,
2013-03-22 21:32:00,61.0,61.0,-100.00,SE,139,3.0,10.0,100,0.00,,,0.10,0.000000,,2013-03-23 07:32:00,
2013-03-22 22:02:00,61.0,61.0,-100.00,SSE,154,3.0,12.0,100,0.01,,,0.11,0.000000,,2013-03-23 08:02:00,
2013-03-22 22:12:00,61.0,61.0,-100.00,SSE,154,3.0,12.0,100,0.01,,,0.11,0.000000,,2013-03-23 08:12:00,
2013-03-22 22:22:00,61.0,61.0,-100.00,SSE,154,3.0,12.0,100,0.01,,,0.11,0.000000,,2013-03-23 08:22:00,
2013-03-22 22:31:00,61.0,61.0,-100.00,SSE,154,3.0,12.0,100,0.01,,,0.11,0.000000,,2013-03-23 08:31:00,
2013-03-22 23:02:00,61.0,61.0,-100.00,SSE,157,2.0,8.0,100,0.10,,,0.21,0.000000,,2013-03-23 09:02:00,
2013-03-22 23:12:00,61.0,61.0,-100.00,SSE,157,2.0,8.0,100,0.10,,,0.21,0.000000,,2013-03-23 09:12:00,
2013-03-22 23:22:00,61.0,61.0,-100.00,SSE,157,2.0,8.0,100,0.10,,,0.21,0.000000,,2013-03-23 09:22:00,
2013-03-22 23:32:00,61.0,61.0,-100.00,SSE,157,2.0,8.0,100,0.10,,,0.21,0.000000,,2013-03-23 09:32:00,